Weather History for Chandler, OK

Change the Weather History Date:

Sunday, May 19, 2013

  Actual Average (KCUH) Record (KCUH)
Temperature  
Mean Temperature 77 °F -  
Max Temperature 86 °F 81 °F 96 °F (1967)
Min Temperature 68 °F 58 °F 44 °F (1968)
Cooling Degree Days 12    
Growing Degree Days 27 (Base 50)    
Moisture  
Dew Point 71 °F    
Average Humidity 86    
Maximum Humidity 100    
Minimum Humidity 66    
Precipitation  
Precipitation 0.00 in - - ()
Sea Level Pressure  
Sea Level Pressure 29.69 in    
Wind  
Wind Speed 9 mph (SSE)    
Max Wind Speed 22 mph    
Max Gust Speed 30 mph    
Visibility 9 miles    
Events Rain    
Averages and records for this station are not official NWS values.
T = Trace of Precipitation, MM = Missing Value Source: NWS Daily Summary

Daily Weather History Graph

Daily Weather History Graph

Search for Another Location

Airport:

Trip Planner

Search our weather history database for the weather conditions in past years. The results will help you decide how hot, cold, wet, or windy it might be!

Date:

Astronomy

May. 19, 2013 Rise Set
Actual Time 6:19 AM CDT 8:28 PM CDT
Civil Twilight 5:50 AM CDT 8:57 PM CDT
Nautical Twilight 5:15 AM CDT 9:32 PM CDT
Astronomical Twilight 4:37 AM CDT 10:11 PM CDT
Moon 2:45 PM CDT (5/19) 2:31 AM CDT (5/19)
Length of Visible Light 15h 07m
Length of Day
14h 09m
Waxing Gibbous, 65% of the Moon is Illuminated
May 19
Waxing Gibbous
May 24
Full
May 31
Last Quarter
Jun 8
New
Jun 16
First Quarter

Hourly Weather History & Observations

Time (CDT) Temp. Heat Index Dew Point Humidity Pressure Visibility Wind Dir Wind Speed Gust Speed Precip Events Conditions
12:15 AM 68.0 °F - 68.0 °F 100% 29.88 in 10.0 mi West 3.5 mph - N/A Rain Rain
12:35 AM 68.0 °F - 66.2 °F 94% 29.81 in 10.0 mi North - - N/A Rain Light Rain
12:55 AM 68.0 °F - 64.4 °F 88% 29.76 in 10.0 mi NNE 8.1 mph - N/A Rain Light Rain
1:15 AM 69.8 °F - 64.4 °F 83% 29.76 in 10.0 mi ESE 11.5 mph - N/A   Scattered Clouds
1:35 AM 69.8 °F - 64.4 °F 83% 29.71 in 10.0 mi ESE 11.5 mph - N/A   Clear
1:55 AM 68.0 °F - 64.4 °F 88% 29.73 in 10.0 mi South 9.2 mph - N/A   Clear
2:15 AM 69.8 °F - 64.4 °F 83% 29.74 in 10.0 mi Calm Calm - N/A   Scattered Clouds
2:35 AM 69.8 °F - 64.4 °F 83% 29.74 in 10.0 mi SE 3.5 mph - N/A   Scattered Clouds
2:55 AM 68.0 °F - 66.2 °F 94% 29.73 in 10.0 mi ESE 5.8 mph - N/A   Scattered Clouds
3:15 AM 68.0 °F - 64.4 °F 88% 29.73 in 10.0 mi ESE 5.8 mph - N/A   Clear
3:35 AM 68.0 °F - 68.0 °F 100% 29.73 in 10.0 mi ESE 5.8 mph - N/A   Clear
3:55 AM 68.0 °F - 68.0 °F 100% 29.72 in 10.0 mi ESE 9.2 mph - N/A   Clear
4:15 AM 69.8 °F - 69.8 °F 100% 29.72 in 10.0 mi SE 9.2 mph - N/A   Clear
4:35 AM 69.8 °F - 69.8 °F 100% 29.72 in 10.0 mi SE 5.8 mph - N/A   Clear
4:55 AM 71.6 °F - 71.6 °F 100% 29.73 in 7.0 mi Calm Calm - N/A   Scattered Clouds
5:15 AM 68.0 °F - 68.0 °F 100% 29.74 in 5.0 mi North 4.6 mph - N/A   Scattered Clouds
5:35 AM 68.0 °F - 68.0 °F 100% 29.74 in 7.0 mi NE 4.6 mph - N/A   Overcast
5:55 AM 68.0 °F - 68.0 °F 100% 29.73 in 7.0 mi NE 5.8 mph - N/A   Mostly Cloudy
6:15 AM 68.0 °F - 68.0 °F 100% 29.73 in 5.0 mi ENE 5.8 mph - N/A   Scattered Clouds
6:35 AM 69.8 °F - 69.8 °F 100% 29.73 in 5.0 mi ESE 5.8 mph - N/A   Mostly Cloudy
6:55 AM 69.8 °F - 69.8 °F 100% 29.73 in 5.0 mi ESE 6.9 mph - N/A   Scattered Clouds
7:15 AM 71.6 °F - 71.6 °F 100% 29.73 in 5.0 mi ESE 4.6 mph - N/A   Clear
7:35 AM 71.6 °F - 71.6 °F 100% 29.72 in 7.0 mi SSE 9.2 mph - N/A   Clear
7:55 AM 73.4 °F - 71.6 °F 94% 29.72 in 10.0 mi South 11.5 mph 17.3 mph N/A   Clear
8:15 AM 73.4 °F - 71.6 °F 94% 29.72 in 10.0 mi SSE 10.4 mph 17.3 mph N/A   Clear
8:35 AM 75.2 °F - 71.6 °F 89% 29.72 in 10.0 mi South 10.4 mph 18.4 mph N/A   Clear
8:55 AM 77.0 °F - 71.6 °F 83% 29.72 in 10.0 mi South 12.7 mph 20.7 mph N/A   Clear
9:15 AM 77.0 °F - 71.6 °F 83% 29.71 in 10.0 mi South 17.3 mph 24.2 mph N/A   Clear
9:35 AM 78.8 °F - 71.6 °F 78% 29.72 in 10.0 mi SSW 15.0 mph 20.7 mph N/A   Clear
9:55 AM 78.8 °F - 71.6 °F 78% 29.71 in 10.0 mi South 12.7 mph 18.4 mph N/A   Clear
10:15 AM 80.6 °F 84.6 °F 71.6 °F 74% 29.71 in 10.0 mi South 16.1 mph 23.0 mph N/A   Clear
10:35 AM 80.6 °F 84.6 °F 71.6 °F 74% 29.71 in 10.0 mi South 13.8 mph 19.6 mph N/A   Scattered Clouds
10:55 AM 80.6 °F 84.6 °F 71.6 °F 74% 29.71 in 10.0 mi South 13.8 mph 23.0 mph N/A   Mostly Cloudy
11:15 AM 80.6 °F 84.6 °F 71.6 °F 74% 29.71 in 10.0 mi South 15.0 mph 21.9 mph N/A   Overcast
11:35 AM 80.6 °F 85.4 °F 73.4 °F 79% 29.71 in 10.0 mi South 12.7 mph 21.9 mph N/A   Overcast
11:55 AM 82.4 °F 88.2 °F 73.4 °F 74% 29.70 in 10.0 mi South 15.0 mph 23.0 mph N/A   Mostly Cloudy
12:15 PM 82.4 °F 88.2 °F 73.4 °F 74% 29.70 in 10.0 mi South 15.0 mph 21.9 mph N/A   Mostly Cloudy
12:35 PM 82.4 °F 88.2 °F 73.4 °F 74% 29.69 in 10.0 mi South 15.0 mph 23.0 mph N/A   Mostly Cloudy
12:55 PM 84.2 °F 90.9 °F 73.4 °F 70% 29.68 in 10.0 mi South 16.1 mph - N/A   Mostly Cloudy
1:15 PM 84.2 °F 90.9 °F 73.4 °F 70% 29.67 in 10.0 mi South 20.7 mph 26.5 mph N/A   Mostly Cloudy
1:35 PM 84.2 °F 90.9 °F 73.4 °F 70% 29.67 in 10.0 mi South 18.4 mph 25.3 mph N/A   Mostly Cloudy
1:55 PM 84.2 °F 90.9 °F 73.4 °F 70% 29.66 in 10.0 mi South 17.3 mph - N/A   Mostly Cloudy
2:15 PM 86.0 °F 93.4 °F 73.4 °F 66% 29.66 in 10.0 mi South 16.1 mph - N/A   Mostly Cloudy
2:35 PM 86.0 °F 95.1 °F 75.2 °F 70% 29.66 in 10.0 mi North - - N/A   Mostly Cloudy
2:55 PM 86.0 °F 93.4 °F 73.4 °F 66% 29.65 in 7.0 mi North - - N/A   Mostly Cloudy
3:15 PM 86.0 °F 93.4 °F 73.4 °F 66% 29.65 in 10.0 mi South 12.7 mph 25.3 mph N/A   Mostly Cloudy
3:35 PM 86.0 °F 95.1 °F 75.2 °F 70% 29.63 in 10.0 mi South 15.0 mph 23.0 mph N/A   Mostly Cloudy
3:55 PM 82.4 °F 88.2 °F 73.4 °F 74% 29.63 in 10.0 mi South 15.0 mph 24.2 mph N/A   Mostly Cloudy
4:15 PM 82.4 °F 88.2 °F 73.4 °F 74% 29.63 in 10.0 mi South 13.8 mph 21.9 mph N/A   Mostly Cloudy
4:35 PM 82.4 °F 88.2 °F 73.4 °F 74% 29.62 in 10.0 mi SSE 15.0 mph 18.4 mph N/A   Scattered Clouds
4:55 PM 80.6 °F 85.4 °F 73.4 °F 79% 29.61 in 10.0 mi SSE 11.5 mph 18.4 mph N/A Rain Light Rain
5:15 PM 80.6 °F 85.4 °F 73.4 °F 79% 29.62 in 10.0 mi SE 9.2 mph - N/A Rain Light Rain
5:35 PM 80.6 °F 85.4 °F 73.4 °F 79% 29.62 in 10.0 mi South 9.2 mph 16.1 mph N/A Rain Light Rain
5:55 PM 80.6 °F 85.4 °F 73.4 °F 79% 29.64 in 10.0 mi South 6.9 mph - N/A Rain Light Rain
6:15 PM 80.6 °F 85.4 °F 73.4 °F 79% 29.62 in 10.0 mi South 17.3 mph 23.0 mph N/A Rain Light Rain
6:35 PM 80.6 °F 85.4 °F 73.4 °F 79% 29.64 in 10.0 mi South 4.6 mph - N/A Rain Light Rain
6:55 PM 78.8 °F - 73.4 °F 83% 29.65 in 7.0 mi South 13.8 mph 20.7 mph N/A Rain Light Rain
7:15 PM 77.0 °F - 77.0 °F 100% 29.60 in 5.0 mi SSE 21.9 mph 27.6 mph N/A Rain Light Rain
7:35 PM 75.2 °F - 73.4 °F 94% 29.63 in 7.0 mi SSE 21.9 mph 29.9 mph N/A   Scattered Clouds
7:55 PM 71.6 °F - 66.2 °F 83% 29.64 in 10.0 mi SE 12.7 mph 18.4 mph N/A   Scattered Clouds
8:15 PM 71.6 °F - 68.0 °F 88% 29.65 in 10.0 mi ESE 10.4 mph - N/A   Scattered Clouds
8:35 PM 71.6 °F - 69.8 °F 94% 29.65 in 10.0 mi SE 6.9 mph - N/A   Clear
8:55 PM 71.6 °F - 69.8 °F 94% 29.65 in 10.0 mi ESE 5.8 mph - N/A   Clear
9:15 PM 71.6 °F - 71.6 °F 100% 29.65 in 10.0 mi SE 6.9 mph - N/A   Clear
9:35 PM 71.6 °F - 71.6 °F 100% 29.65 in 10.0 mi SE 8.1 mph - N/A   Clear
9:55 PM 73.4 °F - 73.4 °F 100% 29.64 in 10.0 mi SE 8.1 mph - N/A   Clear
10:15 PM 73.4 °F - 73.4 °F 100% 29.65 in 10.0 mi SSE 8.1 mph - N/A   Clear
10:35 PM 75.2 °F - 75.2 °F 100% 29.66 in 10.0 mi South 9.2 mph - N/A   Clear
10:55 PM 75.2 °F - 75.2 °F 100% 29.66 in 10.0 mi SSE 8.1 mph - N/A   Clear
11:15 PM 75.2 °F - 73.4 °F 94% 29.67 in 10.0 mi SSE 6.9 mph - N/A   Clear
11:35 PM 77.0 °F - 73.4 °F 89% 29.68 in 10.0 mi South 6.9 mph - N/A   Clear
11:55 PM 77.0 °F - 73.4 °F 89% 29.68 in 10.0 mi South 8.1 mph - N/A   Clear